GW3546 Weather Reports


Display with metric or nautical units.
time (UTC)temp
F
wind
direction
speed
MPH
gust
MPH
rain 1hr
in
rain 24hr
in
rain mn
in
humidity
%
barometer
mb
20260503003104 60 314 6.0 11.0 0.00 0.00 0.00 40 1007.2
20260503001605 60 294 2.0 7.0 0.00 0.00 0.00 40 1007.3
20260503000058 59 311 2.0 9.0 0.00 0.00 0.00 41 1007.5
20260502234559 59 290 2.0 6.0 0.00 0.00 0.00 42 1007.7
20260502233057 59 309 5.0 8.0 0.00 0.00 0.00 42 1007.6
20260502231559 60 14 6.0 14.0 0.00 0.00 0.00 42 1007.8
20260502230055 61 247 7.0 12.0 0.00 0.00 0.00 40 1007.8
20260502224556 62 18 5.0 10.0 0.00 0.00 0.00 40 1007.9
20260502223052 60 309 1.0 5.0 0.00 0.00 0.00 41 1008.3
20260502221549 58 325 2.0 10.0 0.00 0.00 0.00 44 1008.4
20260502220135 60 17 4.0 11.0 0.00 0.00 0.00 43 1008.5
20260502214549 60 302 0.0 6.0 0.00 0.00 0.00 43 1008.7
20260502213046 59 19 3.0 6.0 0.00 0.00 0.00 44 1008.8
20260502211545 58 324 4.0 10.0 0.00 0.00 0.00 45 1009.0
20260502210049 58 355 9.0 16.0 0.00 0.00 0.00 46 1009.1
20260502204558 58 252 4.0 7.0 0.00 0.00 0.00 43 1009.3
20260502203059 58 294 5.0 10.0 0.00 0.00 0.00 45 1009.3
20260502201545 58 320 3.0 11.0 0.00 0.00 0.00 46 1009.5
20260502200042 58 5 7.0 14.0 0.00 0.00 0.00 45 1009.7
20260502194548 58 92 3.0 8.0 0.00 0.00 0.00 44 1009.7
20260502193040 58 346 9.0 15.0 0.00 0.00 0.00 45 1009.9
20260502191542 57 13 9.0 15.0 0.00 0.00 0.00 48 1010.2
20260502190036 56 9 9.0 16.0 0.00 0.00 0.00 46 1010.4
20260502184540 56 324 14.0 18.0 0.00 0.00 0.00 48 1010.4
20260502183036 56 342 11.0 17.0 0.00 0.00 0.00 49 1010.5
20260502181537 56 331 10.0 16.0 0.00 0.00 0.00 49 1010.5
20260502163049 54 15 14.0 21.0 0.00 0.00 0.00 52 1010.3
20260502161530 53 355 13.0 21.0 0.00 0.00 0.00 53 1010.3
20260502151527 50 14 15.0 22.0 0.00 0.00 0.00 60 1010.2
20260502123011 46 5 11.0 17.0 0.00 0.00 0.00 58 1009.0
20260502121509 47 336 10.0 19.0 0.00 0.00 0.00 56 1009.0
20260502114506 49 19 20.0 30.0 0.00 0.00 0.00 52 1008.6
20260502113004 47 355 12.0 20.0 0.00 0.00 0.00 56 1008.5
20260502111502 50 332 8.0 21.0 0.00 0.00 0.00 50 1008.3
20260502110105 51 28 10.0 20.0 0.00 0.00 0.00 49 1008.3
20260502104558 49 321 6.0 11.0 0.00 0.00 0.00 50 1008.0
20260502103057 50 328 2.0 8.0 0.00 0.00 0.00 49 1007.7
20260502101555 49 261 3.0 12.0 0.00 0.00 0.00 49 1007.5
20260502071526 56 11 6.0 10.0 0.00 0.00 0.00 37 1006.3
20260502070030 56 27 10.0 13.0 0.00 0.00 0.00 36 1006.4
20260502064535 55 20 8.0 10.0 0.00 0.00 0.00 37 1006.4
20260502063025 55 34 10.0 12.0 0.00 0.00 0.00 37 1006.4
20260502061518 55 33 9.0 12.0 0.00 0.00 0.00 36 1006.4
20260502060015 55 58 9.0 11.0 0.00 0.00 0.00 37 1006.4
20260502054514 53 31 7.0 10.0 0.00 0.00 0.00 40 1006.5
20260502053014 52 31 3.0 6.0 0.00 0.00 0.00 41 1006.6
20260502051517 53 37 3.0 5.0 0.00 0.00 0.00 40 1006.6
20260502050016 54 326 5.0 9.0 0.00 0.00 0.00 38 1006.5
20260502044513 55 312 9.0 11.0 0.00 0.00 0.00 36 1006.5
20260502043012 55 299 8.0 13.0 0.00 0.00 0.00 36 1006.4
20260502041512 56 335 7.0 11.0 0.00 0.00 0.00 34 1006.4
20260502040011 54 340 4.0 9.0 0.00 0.00 0.00 35 1006.4
20260502034511 56 5 4.0 9.0 0.00 0.00 0.00 33 1006.2
20260502033014 57 335 8.0 12.0 0.00 0.00 0.00 31 1006.1
20260502031510 58 319 7.0 12.0 0.00 0.00 0.00 30 1006.0
20260502030009 59 304 9.0 13.0 0.00 0.00 0.00 28 1005.8
20260502024515 61 323 7.0 13.0 0.00 0.00 0.00 25 1005.7
20260502023009 62 283 12.0 16.0 0.00 0.00 0.00 24 1005.7
20260502021509 63 277 11.0 14.0 0.00 0.00 0.00 24 1005.6
20260502020008 64 274 9.0 13.0 0.00 0.00 0.00 23 1005.4
20260502014526 65 245 12.0 17.0 0.00 0.00 0.00 21 1005.4
20260502013006 66 254 11.0 16.0 0.00 0.00 0.00 21 1005.3
20260502011506 68 250 12.0 17.0 0.00 0.00 0.00 19 1005.4
20260502010008 69 246 14.0 21.0 0.00 0.00 0.00 20 1005.4
20260502004503 69 240 9.0 16.0 0.00 0.00 0.00 21 1005.5